This is the latest recevied weather packets stored in our database for station/object DB0NU-15. If no packets are shown the sender has not sent any weather packets the latest 10 day(s).
| Time | Temp. | Humidity | Pressure | Rain* | Wind** | Luminosity | Snow |
|---|---|---|---|---|---|---|---|
| 1777720854 | 22.78° C | 34% | 1022.5 hPa | 0 mm | - | - | - |
| 1777720251 | 22.22° C | 34% | 1022.7 hPa | 0 mm | - | - | - |
| 1777719647 | 22.22° C | 35% | 1022.7 hPa | 0 mm | - | - | - |
| 1777719044 | 22.22° C | 34% | 1022.8 hPa | 0 mm | - | - | - |
| 1777717837 | 21.67° C | 37% | 1023.1 hPa | 0 mm | - | - | - |
| 1777717234 | 21.67° C | 39% | 1023.1 hPa | 0 mm | - | - | - |
| 1777716630 | 21.67° C | 40% | 1023.3 hPa | 0 mm | - | - | - |
| 1777716027 | 21.11° C | 41% | 1023.4 hPa | 0 mm | - | - | - |
| 1777715424 | 21.11° C | 41% | 1023.6 hPa | 0 mm | - | - | - |
| 1777714820 | 20° C | 42% | 1023.5 hPa | 0 mm | - | - | - |
| 1777714217 | 20.56° C | 42% | 1023.6 hPa | 0 mm | - | - | - |
| 1777713674 | 19.44° C | 42% | 1023.7 hPa | 0 mm | - | - | - |
| 1777713070 | 18.89° C | 43% | 1023.9 hPa | 0 mm | - | - | - |
| 1777711863 | 18.89° C | 45% | 1024 hPa | 0 mm | - | - | - |
| 1777711260 | 17.78° C | 47% | 1024 hPa | 0 mm | - | - | - |
| 1777710656 | 17.78° C | 46% | 1024.3 hPa | 0 mm | - | - | - |
| 1777710053 | 17.78° C | 46% | 1024.3 hPa | 0 mm | - | - | - |
| 1777709450 | 17.22° C | 48% | 1024.5 hPa | 0 mm | - | - | - |
| 1777708846 | 16.67° C | 49% | 1024.5 hPa | 0 mm | - | - | - |
| 1777708243 | 17.22° C | 48% | 1024.6 hPa | 0 mm | - | - | - |
| 1777707640 | 16.67° C | 50% | 1024.7 hPa | 0 mm | - | - | - |
| 1777707036 | 16.67° C | 49% | 1024.7 hPa | 0 mm | - | - | - |
| 1777705226 | 15.56° C | 48% | 1024.9 hPa | 0 mm | - | - | - |
| 1777704623 | 15° C | 51% | 1025 hPa | 0 mm | - | - | - |
| 1777704019 | 15° C | 54% | 1024.9 hPa | 0 mm | - | - | - |
* Rain latest hour (hover to see other rain measurements)
** Current wind speed in m/s (hover to see current wind gust speed)